Flag for Chile Weather past 2 weeks in Santiago, Chile

Now
54 °F

Overcast.


Feels Like: 53 °F
Forecast: N/A
Wind: 5 mph from Southeast

Location: Pudahuel

Current Time: Aug 2, 2015 at 6:12:14 PM

Latest Report: Aug 2, 2015 at 6:00 PM


Visibility: 5 mi

Pressure: 30.09 "Hg (28.08 "Hg at 576m altitude)

Humidity: 77%

Dew point: 46 °F

Location of SantiagoLocation

Historic Weather in Santiago — Graph

°F

Santiago temperature yesterday

Maximum temperature yesterday: 55 °F (at 3:00 PM)
Minimum temperature yesterday: 46 °F (at 5:00 AM)
Average temperature yesterday: 51 °F

Past Weeks' High & Low Weather Summary

 TemperatureHumidityPressure
High73 °F (Jul 29, 5:00 PM)100% (Jul 19, 7:00 AM)30.33 "Hg (Jul 19, 7:00 AM)
Low28 °F (Jul 21, 8:00 AM)22% (Jul 24, 4:00 PM)29.86 "Hg (Jul 26, 3:00 PM)
Average49 °F74%30.08 "Hg
* Reported Jul 18 5:00 PM — Aug 2 5:00 PM, Santiago, Weather by CustomWeather, © 2015

Note: Actual official high and low records may vary slightly from our data, if they occured in-between our weather recording intervals... More about our weather records

Advertising

Santiago weather history for previous 24 hours

 ConditionsComfort  
Time TempWeatherWind HumidityBarometerVisibility
5:00 PM
Sun, Aug 2
54 °FOvercast.3 mph77%30.09 "Hg5 mi
4:00 PM52 °FOvercast.3 mph82%30.09 "Hg5 mi
3:00 PM52 °FOvercast.No wind88%30.09 "Hg5 mi
2:00 PM52 °FOvercast.3 mph82%30.12 "Hg4 mi
1:00 PM50 °FOvercast.9 mph94%30.15 "Hg4 mi
12:00 PM50 °FOvercast.3 mph94%30.15 "Hg4 mi
11:00 AM50 °FOvercast.3 mph88%30.15 "Hg4 mi
10:00 AM48 °FFog.3 mph94%30.15 "Hg3 mi
9:00 AM48 °FFog.2 mph94%30.12 "Hg3 mi
8:00 AM48 °FBroken clouds.5 mph94%30.12 "Hg4 mi
7:00 AM48 °FPassing clouds.3 mph94%30.12 "HgN/A
6:00 AM48 °FPassing clouds.6 mph94%30.09 "HgN/A
5:00 AM50 °FPartly cloudy.5 mph88%30.09 "HgN/A
4:00 AM50 °FPartly cloudy.8 mph88%30.12 "HgN/A
3:00 AM50 °FPartly cloudy.9 mph88%30.09 "HgN/A
2:00 AM50 °FMostly cloudy.3 mph88%30.09 "HgN/A
1:00 AM50 °FMostly cloudy.3 mph88%30.09 "Hg4 mi
12:00 AM50 °FOvercast.5 mph88%30.09 "Hg4 mi
11:00 PM
Sat, Aug 1
52 °FOvercast.6 mph82%30.09 "Hg5 mi
10:00 PM52 °FMostly cloudy.5 mph82%30.07 "Hg3 mi
9:00 PM54 °FPassing clouds.3 mph77%30.07 "Hg5 mi
8:00 PM54 °FMostly cloudy.6 mph77%30.04 "Hg5 mi
7:00 PM54 °FMostly cloudy.6 mph77%30.04 "Hg4 mi
6:00 PM55 °FMostly cloudy.6 mph72%30.04 "Hg5 mi
Weather by CustomWeather, © 2015

See weather overviewHow to use our weather pages